Location: Newark
(15.4608°S, 41.1635°W)
Time: 14:17:24
(UTC+00:00)

Vanguard 3 - Pass Details

Date: 01 March 2021
Orbit: 508 x 3262 km, 33.3° (Epoch: 16 April)

Event Time Altitude Azimuth Distance (km) Brightness Sun altitude
Exits shadow 08:04:27 - 238° (WSW) 2,933 9.6 -10.5°
Reaches altitude 10° 08:06:05 10° 226° (SW) 2,571 9.4 -10.1°
Maximum altitude 08:10:45 21° 178° (S) 2,375 9.7 -9.0°
Drops below altitude 10° 08:17:28 10° 132° (SE) 3,886 11.6 -7.4°
Sets 08:22:51 0° 118° (ESE) 5,468 13.0 -6.2°
